When you browse on this site, cookies collect data to enhance your experience and personalize the content and advertising you see.
Visit our Privacy Policy to learn more. By continuing to use the site, you agree to this use of cookies and data.
  • In Norway
  • List of Countries
  • For 7 days
  • Water Temperature
  • Satellite Maps
  • Weather Map
  • Weather Widgets
  • user-avatar
    Login

    Hourly Weather Bagdad

    Today, 21 June, Friday

    Time Temperature Precipitation Wind Pressure Humidity
    00:00 +35°C° 0 mm 6 mps 749 mmHg 23%
    01:00 +34°C° 0 mm 5 mps 748 mmHg 23%
    02:00 +34°C° 0 mm 5 mps 748 mmHg 22%
    03:00 +33°C° 0 mm 5 mps 748 mmHg 21%
    04:00 +33°C° 0 mm 5 mps 748 mmHg 22%
    05:00 +32°C° 0 mm 4 mps 749 mmHg 22%
    06:00 +32°C° 0 mm 4 mps 749 mmHg 23%
    07:00 +34°C° 0 mm 4 mps 749 mmHg 21%
    08:00 +37°C° 0 mm 5 mps 749 mmHg 19%
    09:00 +40°C° 0 mm 6 mps 750 mmHg 17%
    10:00 +41°C° 0 mm 6 mps 749 mmHg 16%
    11:00 +42°C° 0 mm 6 mps 749 mmHg 15%
    12:00 +44°C° 0 mm 7 mps 749 mmHg 13%
    13:00 +45°C° 0 mm 7 mps 748 mmHg 13%
    14:00 +45°C° 0 mm 8 mps 748 mmHg 13%
    15:00 +45°C° 0 mm 8 mps 748 mmHg 13%
    16:00 +44°C° 0 mm 8 mps 747 mmHg 13%
    17:00 +43°C° 0 mm 7 mps 747 mmHg 14%
    18:00 +41°C° 0 mm 7 mps 747 mmHg 14%
    19:00 +40°C° 0 mm 6 mps 747 mmHg 16%
    20:00 +38°C° 0 mm 6 mps 748 mmHg 17%
    21:00 +36°C° 0 mm 5 mps 748 mmHg 19%
    22:00 +35°C° 0 mm 5 mps 748 mmHg 20%
    23:00 +35°C° 0 mm 5 mps 748 mmHg 21%

    Tomorrow, 22 June, Saturday

    Time Temperature Precipitation Wind Pressure Humidity
    00:00 +34°C° 0 mm 5 mps 748 mmHg 22%
    01:00 +34°C° 0 mm 5 mps 748 mmHg 23%
    02:00 +33°C° 0 mm 5 mps 748 mmHg 25%
    03:00 +33°C° 0 mm 5 mps 747 mmHg 26%
    04:00 +33°C° 0 mm 4 mps 748 mmHg 26%
    05:00 +33°C° 0 mm 4 mps 748 mmHg 26%
    06:00 +33°C° 0 mm 4 mps 748 mmHg 26%
    07:00 +35°C° 0 mm 5 mps 748 mmHg 24%
    08:00 +39°C° 0 mm 6 mps 748 mmHg 22%
    09:00 +41°C° 0 mm 7 mps 749 mmHg 20%
    10:00 +43°C° 0 mm 7 mps 748 mmHg 18%
    11:00 +45°C° 0 mm 7 mps 748 mmHg 16%
    12:00 +46°C° 0 mm 7 mps 748 mmHg 14%
    13:00 +47°C° 0 mm 7 mps 748 mmHg 14%
    14:00 +47°C° 0 mm 7 mps 747 mmHg 14%
    15:00 +47°C° 0 mm 7 mps 747 mmHg 13%
    16:00 +47°C° 0 mm 7 mps 747 mmHg 14%
    17:00 +46°C° 0 mm 7 mps 747 mmHg 14%
    18:00 +45°C° 0 mm 7 mps 747 mmHg 15%
    19:00 +44°C° 0 mm 7 mps 747 mmHg 16%
    20:00 +41°C° 0 mm 6 mps 747 mmHg 17%
    21:00 +40°C° 0 mm 6 mps 748 mmHg 18%
    22:00 +39°C° 0 mm 6 mps 748 mmHg 19%
    23:00 +37°C° 0 mm 5 mps 748 mmHg 20%

    Day after tomorrow, 23 June, Sunday

    Time Temperature Precipitation Wind Pressure Humidity
    00:00 +37°C° 0 mm 5 mps 748 mmHg 20%
    01:00 +36°C° 0 mm 5 mps 748 mmHg 21%
    02:00 +35°C° 0 mm 5 mps 748 mmHg 22%
    03:00 +35°C° 0 mm 4 mps 748 mmHg 24%
    04:00 +35°C° 0 mm 4 mps 748 mmHg 23%
    05:00 +34°C° 0 mm 4 mps 748 mmHg 23%
    06:00 +34°C° 0 mm 4 mps 748 mmHg 23%
    07:00 +37°C° 0 mm 5 mps 749 mmHg 20%
    08:00 +41°C° 0 mm 5 mps 749 mmHg 18%
    09:00 +45°C° 0 mm 6 mps 749 mmHg 15%
    10:00 +46°C° 0 mm 5 mps 749 mmHg 13%
    11:00 +47°C° 0 mm 5 mps 749 mmHg 12%
    12:00 +48°C° 0 mm 4 mps 749 mmHg 10%
    13:00 +49°C° 0 mm 5 mps 748 mmHg 10%
    14:00 +49°C° 0 mm 6 mps 748 mmHg 9%
    15:00 +49°C° 0 mm 6 mps 748 mmHg 8%
    16:00 +49°C° 0 mm 6 mps 748 mmHg 9%
    17:00 +49°C° 0 mm 7 mps 748 mmHg 9%
    18:00 +47°C° 0 mm 7 mps 747 mmHg 9%
    19:00 +45°C° 0 mm 7 mps 748 mmHg 11%
    20:00 +42°C° 0 mm 6 mps 748 mmHg 12%
    21:00 +41°C° 0 mm 6 mps 748 mmHg 13%
    22:00 +40°C° 0 mm 6 mps 748 mmHg 15%
    23:00 +39°C° 0 mm 6 mps 748 mmHg 16%

    24 June, Monday

    Time Temperature Precipitation Wind Pressure Humidity
    00:00 +38°C° 0 mm 6 mps 748 mmHg 17%
    01:00 +38°C° 0 mm 6 mps 748 mmHg 17%
    02:00 +36°C° 0 mm 5 mps 748 mmHg 17%
    03:00 +36°C° 0 mm 5 mps 748 mmHg 17%
    04:00 +36°C° 0 mm 5 mps 748 mmHg 17%
    05:00 +36°C° 0 mm 5 mps 748 mmHg 17%
    06:00 +36°C° 0 mm 5 mps 748 mmHg 18%
    07:00 +39°C° 0 mm 6 mps 749 mmHg 15%
    08:00 +42°C° 0 mm 6 mps 749 mmHg 13%
    09:00 +46°C° 0 mm 6 mps 749 mmHg 10%
    10:00 +48°C° 0 mm 6 mps 749 mmHg 8%
    11:00 +49°C° 0 mm 6 mps 749 mmHg 7%
    12:00 +52°C° 0 mm 6 mps 748 mmHg 5%
    13:00 +52°C° 0 mm 6 mps 748 mmHg 5%
    14:00 +52°C° 0 mm 7 mps 748 mmHg 5%
    15:00 +52°C° 0 mm 7 mps 747 mmHg 5%
    16:00 +52°C° 0 mm 7 mps 747 mmHg 5%
    17:00 +51°C° 0 mm 7 mps 747 mmHg 5%
    18:00 +50°C° 0 mm 7 mps 747 mmHg 6%
    19:00 +47°C° 0 mm 6 mps 747 mmHg 7%
    20:00 +45°C° 0 mm 6 mps 748 mmHg 8%
    21:00 +42°C° 0 mm 6 mps 748 mmHg 9%
    22:00 +41°C° 0 mm 6 mps 748 mmHg 10%
    23:00 +40°C° 0 mm 6 mps 748 mmHg 11%

    25 June, Tuesday

    Time Temperature Precipitation Wind Pressure Humidity
    00:00 +40°C° 0 mm 5 mps 748 mmHg 11%
    01:00 +39°C° 0 mm 5 mps 748 mmHg 12%
    02:00 +37°C° 0 mm 5 mps 748 mmHg 13%
    03:00 +36°C° 0 mm 5 mps 747 mmHg 13%
    04:00 +36°C° 0 mm 5 mps 748 mmHg 14%
    05:00 +36°C° 0 mm 5 mps 748 mmHg 14%
    06:00 +36°C° 0 mm 4 mps 748 mmHg 14%
    07:00 +40°C° 0 mm 5 mps 748 mmHg 12%
    08:00 +43°C° 0 mm 5 mps 749 mmHg 10%
    09:00 +47°C° 0 mm 6 mps 749 mmHg 8%
    10:00 +48°C° 0 mm 6 mps 749 mmHg 7%
    11:00 +51°C° 0 mm 7 mps 749 mmHg 6%
    12:00 +52°C° 0 mm 7 mps 748 mmHg 5%
    13:00 +54°C° 0 mm 8 mps 748 mmHg 5%
    14:00 +54°C° 0 mm 8 mps 748 mmHg 5%
    15:00 +54°C° 0 mm 9 mps 747 mmHg 5%
    16:00 +53°C° 0 mm 9 mps 747 mmHg 5%
    17:00 +52°C° 0 mm 8 mps 747 mmHg 5%
    18:00 +51°C° 0 mm 7 mps 747 mmHg 6%
    19:00 +49°C° 0 mm 7 mps 747 mmHg 7%
    20:00 +46°C° 0 mm 6 mps 748 mmHg 8%
    21:00 +43°C° 0 mm 5 mps 748 mmHg 10%
    22:00 +42°C° 0 mm 5 mps 748 mmHg 10%
    23:00 +41°C° 0 mm 4 mps 748 mmHg 11%

    26 June, Wednesday

    Time Temperature Precipitation Wind Pressure Humidity
    00:00 +40°C° 0 mm 4 mps 747 mmHg 11%
    01:00 +38°C° 0 mm 4 mps 747 mmHg 12%
    02:00 +37°C° 0 mm 3 mps 747 mmHg 12%
    03:00 +37°C° 0 mm 3 mps 747 mmHg 13%
    04:00 +37°C° 0 mm 3 mps 747 mmHg 13%
    05:00 +37°C° 0 mm 3 mps 747 mmHg 13%
    06:00 +37°C° 0 mm 4 mps 747 mmHg 13%
    07:00 +41°C° 0 mm 4 mps 747 mmHg 11%
    08:00 +45°C° 0 mm 5 mps 747 mmHg 9%
    09:00 +48°C° 0 mm 5 mps 747 mmHg 7%
    10:00 +49°C° 0 mm 6 mps 747 mmHg 7%
    11:00 +52°C° 0 mm 7 mps 747 mmHg 6%
    12:00 +55°C° 0 mm 8 mps 746 mmHg 5%
    13:00 +55°C° 0 mm 9 mps 746 mmHg 4%
    14:00 +55°C° 0 mm 10 mps 746 mmHg 4%
    15:00 +57°C° 0 mm 10 mps 745 mmHg 4%
    16:00 +55°C° 0 mm 9 mps 745 mmHg 5%
    17:00 +54°C° 0 mm 9 mps 745 mmHg 5%
    18:00 +54°C° 0 mm 8 mps 745 mmHg 5%
    19:00 +50°C° 0 mm 7 mps 745 mmHg 6%
    20:00 +47°C° 0 mm 7 mps 745 mmHg 8%
    21:00 +45°C° 0 mm 6 mps 745 mmHg 9%
    22:00 +43°C° 0 mm 5 mps 745 mmHg 9%
    23:00 +42°C° 0 mm 5 mps 745 mmHg 10%
    Show more